Total_Precipitation_Accumulation
0.03 0.05 0.08 0.08 0.10 0.15 0.20 0.26 0.37 0.42 0.29 0.35 0.53 0.73 0.93 1.06 1.21 1.28 1.41 1.39 1.59 1.87 2.04 2.42 2.79 3.25 3.70 4.24 5.05 5.74 6.32 6.43 6.30 5.95 5.58 5.33 4.88 4.59 4.30 4.03 3.88 3.63 3.36 3.25
0.04 0.07 0.06 0.07 0.08 0.10 0.17 0.25 0.41 0.42 0.30 0.36 0.55 0.79 1.07 1.12 1.08 1.08 1.29 1.37 1.44 1.65 1.96 2.34 2.88 3.19 3.56 4.13 4.74 5.13 5.21 5.01 4.94 5.02 4.93 4.65 4.65 4.49 4.43 4.26 4.11 3.57 3.39 3.30
0.06 0.07 0.05 0.06 0.09 0.10 0.15 0.23 0.30 0.34 0.37 0.45 0.65 1.06 1.31 1.29 1.07 0.98 1.01 1.12 1.23 1.37 1.60 1.97 2.54 2.87 3.07 3.61 3.98 3.98 3.95 3.90 4.04 4.14 4.08 4.12 4.37 4.45 4.53 4.49 4.25 3.80 3.60 3.48
0.03 0.05 0.06 0.07 0.10 0.11 0.17 0.16 0.20 0.24 0.37 0.69 0.80 1.36 1.64 1.68 1.46 1.15 1.03 1.15 1.20 1.29 1.33 1.65 2.00 2.26 2.54 2.85 3.03 3.01 3.13 3.25 3.34 3.45 3.49 3.37 3.39 3.66 3.94 4.19 4.28 4.17 3.89 3.66
0.04 0.05 0.06 0.07 0.09 0.10 0.12 0.12 0.17 0.26 0.37 0.58 0.69 1.04 1.59 1.87 1.85 1.46 1.18 1.10 1.02 1.17 1.38 1.57 1.69 1.89 2.01 2.11 2.27 2.35 2.61 3.02 3.21 3.33 3.50 3.42 3.08 3.09 3.19 3.37 3.57 3.59 3.59 3.42
0.05 0.06 0.07 0.06 0.07 0.10 0.11 0.17 0.28 0.41 0.62 0.94 0.83 0.93 1.47 1.69 1.74 1.37 1.15 1.06 0.95 0.95 1.09 1.31 1.59 1.71 1.70 1.69 1.86 2.09 2.39 2.92 3.23 3.35 3.30 3.31 3.23 3.22 3.15 3.15 3.26 3.17 3.17 3.09
0.16 0.14 0.10 0.07 0.09 0.11 0.13 0.28 0.71 1.16 1.49 1.52 0.92 0.90 1.16 1.22 1.11 1.10 0.96 0.92 0.98 0.92 0.88 0.88 1.07 1.34 1.34 1.30 1.50 1.76 1.98 2.45 2.80 2.98 2.88 2.84 3.00 3.12 2.96 2.79 2.76 2.75 2.60 2.54
0.19 0.23 0.15 0.10 0.09 0.11 0.14 0.21 0.53 0.88 1.07 1.19 1.05 1.39 1.48 1.09 0.90 0.80 0.70 0.73 0.83 0.75 0.67 0.64 0.70 0.89 1.14 1.17 1.27 1.41 1.64 1.93 2.27 2.49 2.56 2.64 2.83 2.95 2.88 3.07 2.79 2.64 2.31 2.16
0.08 0.12 0.11 0.10 0.10 0.13 0.16 0.16 0.24 0.38 0.56 0.90 1.20 1.41 1.35 1.11 1.02 0.83 0.67 0.61 0.61 0.58 0.59 0.62 0.68 0.85 0.93 0.95 1.04 1.21 1.42 1.62 1.85 2.11 2.34 2.43 2.42 2.43 2.59 2.77 2.71 2.53 2.44 2.18
0.05 0.06 0.09 0.10 0.11 0.13 0.15 0.16 0.21 0.30 0.52 0.76 1.09 1.50 1.59 1.39 1.18 0.99 0.89 0.70 0.59 0.61 0.63 0.62 0.63 0.68 0.75 0.81 0.93 1.14 1.34 1.38 1.61 2.00 2.29 2.28 2.37 2.29 2.44 2.42 2.40 2.43 2.34 2.27
0.05 0.05 0.08 0.12 0.14 0.18 0.19 0.17 0.18 0.24 0.28 0.46 0.96 1.26 1.13 1.14 1.07 0.99 0.87 0.77 0.71 0.69 0.67 0.64 0.63 0.63 0.75 0.70 0.79 0.97 1.11 1.27 1.58 1.94 2.27 2.41 2.35 2.32 2.39 2.22 2.17 2.28 2.29 2.27
0.05 0.05 0.08 0.14 0.20 0.19 0.19 0.19 0.20 0.27 0.27 0.30 0.51 0.85 0.68 0.77 0.88 0.90 0.75 0.68 0.66 0.57 0.54 0.50 0.49 0.55 0.56 0.58 0.70 1.00 1.31 1.67 1.89 2.21 2.55 2.72 2.52 2.30 2.16 1.97 1.95 2.10 2.27 2.32
0.05 0.06 0.15 0.33 0.36 0.26 0.20 0.17 0.18 0.20 0.21 0.26 0.51 0.78 0.63 0.69 0.83 0.81 0.74 0.68 0.67 0.68 0.56 0.54 0.50 0.58 0.59 0.57 0.59 0.73 0.91 1.31 1.66 2.02 2.38 2.45 2.23 2.02 1.98 1.96 1.99 2.12 2.31 2.34
0.06 0.06 0.11 0.29 0.36 0.34 0.28 0.22 0.19 0.17 0.20 0.26 0.37 0.66 0.66 0.70 0.69 0.75 0.68 0.64 0.72 0.81 0.68 0.62 0.60 0.59 0.59 0.60 0.58 0.68 0.79 0.88 1.15 1.63 1.97 1.96 1.83 1.78 1.83 1.87 1.93 1.95 2.06 2.13
0.07 0.07 0.06 0.08 0.16 0.24 0.26 0.23 0.20 0.17 0.16 0.28 0.34 0.47 0.55 0.71 0.71 0.73 0.70 0.64 0.62 0.72 0.69 0.64 0.64 0.72 0.74 0.79 0.80 0.80 0.82 0.85 1.05 1.57 1.84 1.80 1.73 1.77 1.75 1.75 1.87 1.95 2.00 2.04
0.10 0.11 0.10 0.11 0.15 0.17 0.18 0.21 0.19 0.14 0.13 0.12 0.19 0.37 0.42 0.67 0.84 0.82 0.82 0.79 0.72 0.71 0.67 0.65 0.58 0.67 0.79 0.87 0.89 0.90 0.96 1.01 1.14 1.52 1.82 1.79 1.69 1.66 1.60 1.68 1.82 1.95 2.03 2.21
0.16 0.15 0.15 0.17 0.20 0.19 0.26 0.22 0.18 0.17 0.16 0.17 0.27 0.41 0.43 0.53 0.70 0.80 0.82 0.78 0.71 0.72 0.65 0.66 0.70 0.78 0.98 0.92 0.94 1.02 0.96 1.02 1.21 1.58 1.83 1.87 1.77 1.72 1.70 1.64 1.82 2.02 2.25 2.44
0.29 0.27 0.26 0.22 0.26 0.38 0.30 0.22 0.23 0.26 0.30 0.31 0.34 0.38 0.42 0.56 0.64 0.78 0.95 0.82 0.68 0.71 0.73 0.81 0.80 0.86 0.94 0.93 0.99 1.06 1.08 1.13 1.30 1.60 1.84 1.92 1.89 1.90 1.98 1.99 2.07 2.26 2.51 2.69
0.34 0.40 0.36 0.32 0.36 0.43 0.39 0.31 0.35 0.40 0.46 0.48 0.50 0.44 0.50 0.58 0.70 0.87 0.82 0.81 0.85 0.86 0.86 0.91 1.00 1.05 1.13 1.12 1.08 1.16 1.31 1.37 1.44 1.53 1.80 2.00 2.08 2.14 2.12 2.17 2.43 2.64 2.81 2.84
0.37 0.46 0.50 0.45 0.54 0.62 0.60 0.44 0.38 0.47 0.81 0.63 0.65 0.63 0.57 0.62 0.91 1.06 0.88 0.79 0.79 0.91 1.01 1.01 1.08 1.14 1.17 1.22 1.30 1.36 1.49 1.65 1.78 1.88 2.04 2.32 2.53 2.67 2.70 2.77 2.84 2.91 3.01 2.97
0.66 0.63 0.62 0.67 0.80 0.75 0.58 0.51 0.46 0.88 1.23 0.90 0.86 0.84 0.75 0.87 1.00 1.01 0.87 0.81 0.77 0.81 0.95 1.04 1.07 1.18 1.28 1.30 1.45 1.73 1.87 1.96 2.14 2.31 2.39 2.65 3.00 3.19 3.14 3.17 3.07 2.99 2.98 3.00
0.89 0.85 0.85 0.91 1.16 1.23 0.68 0.62 0.98 1.23 1.04 1.05 1.07 1.05 0.98 0.97 1.02 1.04 1.00 0.86 0.82 0.83 0.89 1.01 1.10 1.19 1.39 1.65 1.85 2.14 2.32 2.38 2.46 2.62 2.92 3.16 3.33 3.16 3.06 3.24 3.14 3.14 3.20 3.17
0.98 1.02 1.10 1.18 1.41 1.20 0.84 0.95 1.13 1.12 1.10 1.14 1.12 1.07 0.97 0.93 1.10 1.05 0.99 0.99 0.88 0.85 0.90 1.00 1.10 1.29 1.49 1.80 2.20 2.46 2.54 2.74 2.75 2.82 3.03 3.10 3.16 3.26 3.39 3.46 3.34 3.27 3.26 3.19
1.20 1.07 1.26 1.48 1.54 1.30 1.14 1.13 1.08 1.11 1.14 1.10 1.03 0.99 1.00 0.97 0.99 1.01 0.98 0.98 0.93 0.92 1.00 1.05 1.17 1.38 1.67 1.98 2.33 2.50 2.56 2.60 2.63 2.67 2.72 2.84 3.02 3.15 3.26 3.48 3.47 3.34 3.16 3.06
1.42 1.32 1.57 1.98 2.04 1.89 1.74 1.49 1.31 1.26 1.19 1.23 1.19 1.11 1.08 1.05 1.01 0.97 1.00 0.99 0.99 0.98 1.09 1.19 1.30 1.42 1.57 1.82 2.11 2.23 2.40 2.53 2.70 2.74 2.67 2.60 2.64 2.77 2.92 3.05 3.13 3.06 3.02 2.87
1.60 1.63 1.90 2.27 2.01 1.98 2.13 1.86 1.61 1.55 1.53 1.53 1.49 1.44 1.32 1.24 1.18 1.11 1.07 1.00 0.97 0.97 1.06 1.19 1.33 1.50 1.66 1.82 2.01 2.12 2.31 2.48 2.66 2.67 2.56 2.52 2.49 2.56 2.62 2.63 2.61 2.48 2.37 2.23